Regional Weather Roundup
Issued by NWS Cleveland, OH

Home | Current Version | Previous Version | Text Only | Print | Product List | Glossary Off
Versions: 1 2 3 4 5 6 7 8 9 10 11 12 13 14 15 16 17 18 19 20 21 22 23 24 25 26 27 28 29 30 31 32 33 34 35 36 37 38 39 40 41 42 43 44 45 46 47 48 49 50

000
ASUS41 KCLE 200712
RWRCLE
OHIO REGIONAL WEATHER ROUNDUP
NATIONAL WEATHER SERVICE WILMINGTON, OH
200 AM EST SAT JAN 20 2018

NOTE: "FAIR" INDICATES FEW OR NO CLOUDS BELOW 12,000 FEET WITH NO
SIGNIFICANT WEATHER AND/OR OBSTRUCTIONS TO VISIBILITY.

OHZ001>008-015>018-024>027-034-035-043-044-200800-
   NORTHWEST OHIO

CITY           SKY/WX    TMP DP  RH WIND       PRES   REMARKS
DEFIANCE       FAIR      33  23  66 SW14G23   29.86S WCI  23
FINDLAY        FAIR      34  23  64 SW20G28   29.87S WCI  23
TOLEDO EXPRESS FAIR      35  26  69 SW17G28   29.83F WCI  25
TOLEDO EXEC    FAIR      34  25  69 SW18G26   29.85S WCI  23
LIMA           FAIR      34  25  69 SW20G26   29.89S WCI  23
$$

OHZ009>014-019>023-028>033-038-089-200800-
   NORTHEAST OHIO

CITY           SKY/WX    TMP DP  RH WIND       PRES   REMARKS
CLE-HOPKINS    MOCLDY    38  23  55 SW16G30   29.89R
CLE-LAKEFRONT  FAIR      37  22  54 SW16G25   29.87R
CUY CO. ARPT   NOT AVBL
LORAIN-ELYRIA  FAIR      34  20  56 SW20G28   29.87R WCI  23
ASHTABULA      FAIR      33  20  58 SW10      29.86R WCI  25
AKRON-CANTON   FAIR      32  19  58 SW17      29.90R WCI  21
WOOSTER        FAIR      33  22  63 SW15G22   29.91R WCI  23
MANSFIELD      FAIR      34  23  64 SW22G32   29.89R WCI  22
YOUNGSTOWN     FAIR      34  20  56 SW16      29.88R WCI  24
$$

OHZ042-051>053-060>062-070>072-077>081-200800-
  SOUTHWEST OHIO

CITY           SKY/WX    TMP DP  RH WIND       PRES   REMARKS
CINC-COVINGTON MOCLDY    36  24  62 SW14G20   30.01S
CINC-LUNKEN    FAIR      32  22  66 SW6       30.05S WCI  26
HAMILTON       FAIR      36  24  62 SW7       30.02S
DAYTON         MOCLDY    33  23  66 SW18      29.95S WCI  22
WRIGHT-PAT AFB FAIR      35  15  44 SW22      29.96S WCI  23
DAYTON GENERAL FAIR      35  22  58 SW13      29.98S WCI  26
WILMINGTON     FAIR      33  23  66 SW18      29.98F WCI  22
$$

OHZ036-037-039>041-045>050-054>059-063>069-073>076-082>088-200800-
  CENTRAL AND SOUTHEAST OHIO

CITY           SKY/WX    TMP DP  RH WIND       PRES   REMARKS
COLUMBUS       MOCLDY    31  19  61 S6        29.98S WCI  25
OSU AIRPORT    FAIR      32  21  64 S12       29.96S WCI  23
BOLTON FIELD   FAIR      32  22  65 SW13      29.98S WCI  22
RICKENBACK AFB FAIR      32  21  64 SW14      29.99S WCI  22
NEWARK         FAIR      36  22  56 SW10G20   29.97S
MARION         FAIR      30  21  69 S8        29.93R WCI  22
LANCASTER      FAIR      36  23  59 S9        29.99F
ZANESVILLE     FAIR      33  18  53 S9        29.99S WCI  25
NEW PHILLY     FAIR      35  19  52 S13G18    29.97R WCI  26
$$




USA.gov is the U.S. government's official web portal to all federal, state and local government web resources and services.